Stations météo

réclame
Mon MeteoGroup
Istres, France (7647): Température de l'air & dewpoint: 11.10.2017 20:00:00 - 17.10.2017 20:00:00 (CEST)Istres, France (7647): Température de l'air 5cm: 11.10.2017 20:00:00 - 17.10.2017 20:00:00 (CEST)Istres, France (7647): Vitesse du vent & gusts: 11.10.2017 20:00:00 - 17.10.2017 20:00:00 (CEST)Istres, France (7647): Direction du vent: 11.10.2017 20:00:00 - 17.10.2017 20:00:00 (CEST)Istres, France (7647): reduced air pressure: 11.10.2017 20:00:00 - 17.10.2017 20:00:00 (CEST)Istres, France (7647): visibility: 11.10.2017 20:00:00 - 17.10.2017 20:00:00 (CEST)Istres, France (7647): Quantités de précipitations: 11.10.2017 20:00:00 - 17.10.2017 20:00:00 (CEST)
Date & Time tt [°C] td [°C] tt 5cm [°C] ff [km/h] ff [knt] fx [km/h] fx [knt] dd ppp [hPa] vv [km] rr [mm]
17.10.2017 20:00:00 17,1 14,7 16,0 8 4 13 7 SE 1022,0 10 0,0
17.10.2017 19:00:00 18,2 14,9 17,4 5 3 26 14 ESE 1021,8 10 0,0
17.10.2017 18:00:00 19,4 15,1 21,5 21 11 27 14 S 1022,0 10 0,0
17.10.2017 17:00:00 21,1 14,0 25,5 15 8 26 14 SSE 1022,3 10 0,0
17.10.2017 16:00:00 21,3 14,5 27,3 16 9 29 15 SSE 1022,7 10 0,0
17.10.2017 15:00:00 21,9 14,3 27,1 21 11 29 15 S 1023,2 10 0,0
17.10.2017 14:00:00 21,7 13,8 26,0 14 8 26 14 S 1024,1 20 0,0
17.10.2017 13:00:00 20,9 14,1 22,4 9 5 26 14 ESE 1024,7 10 0,0
17.10.2017 12:00:00 19,3 14,5 21,9 11 6 18 10 SSE 1025,3 10 0,0
17.10.2017 11:00:00 17,5 14,8 16,2 8 4 14 7 E 1025,6 10 0,0
17.10.2017 10:00:00 14,4 14,1 13,7 5 3 11 6 ENE 1025,7 1,6 0,0
17.10.2017 09:00:00 13,5 13,2 11,8 7 4 11 6 E 1025,4 0,2 0,0
17.10.2017 08:00:00 11,7 11,2 9,7 4 2 11 6 NNE 1025,2 0,3 0,0
17.10.2017 07:00:00 10,6 10,0 9,7 8 4 13 7 NNE 1025,4 7 0,0
17.10.2017 06:00:00 11,1 10,6 10,3 9 5 16 8 NNE 1025,3 3,6 0,0
17.10.2017 05:00:00 11,4 10,8 10,3 8 5 17 9 NNE 1025,6 4,5 0,0
17.10.2017 04:00:00 11,7 11,1 10,9 11 6 18 10 NNE 1026,0 6 0,2
17.10.2017 03:00:00 12,2 11,6 10,9 11 6 15 8 NNE 1026,5 3,8 0,0
17.10.2017 02:00:00 12,2 11,4 11,1 6 3 8 4 NNE 1026,8 3,3 0,0
17.10.2017 01:00:00 12,3 11,4 11,3 5 3 9 5 NE 1027,0 6 0,0
17.10.2017 00:00:00 12,7 11,8 11,8 7 4 9 5 NE 1027,3 3,0 0,0
16.10.2017 23:00:00 13,8 12,7 12,3 5 3 9 5 NE 1027,4 7 0,0
16.10.2017 22:00:00 14,2 12,8 12,5 5 3 11 6 NNE 1027,1 13 0,0
16.10.2017 21:00:00 16,0 14,0 11,6 4 2 7 4 SSW 1027,0 16 0,0
16.10.2017 20:00:00 16,5 14,0 13,5 4 2 10 5 SW 1027,0 21 0,0
16.10.2017 19:00:00 18,3 14,2 17,1 8 5 16 8 SSE 1026,6 19 0,0
16.10.2017 18:00:00 20,6 14,0 21,4 13 7 18 10 S 1026,4 10 0,0
16.10.2017 17:00:00 22,8 14,1 27,7 11 6 20 11 S 1026,6 10 0,0
16.10.2017 16:00:00 23,4 13,8 29,8 9 5 19 10 S 1026,9 53 0,0
16.10.2017 15:00:00 23,9 13,7 29,6 5 3 17 9 - 1027,4 10 0,0
16.10.2017 14:00:00 23,4 13,6 26,1 9 5 29 16 SSW 1028,1 10 0,0
16.10.2017 13:00:00 22,1 13,4 24,3 5 3 15 8 - 1028,8 10 0,2
16.10.2017 12:00:00 20,6 14,7 19,8 8 4 13 7 ENE 1029,0 16 0,0
16.10.2017 11:00:00 17,5 13,6 17,0 9 5 13 7 ENE 1029,3 16 0,0
16.10.2017 10:00:00 14,8 13,5 14,4 5 3 12 7 NNE 1029,0 10 0,0
16.10.2017 09:00:00 13,5 12,9 11,3 8 4 10 6 NNE 1028,4 8 0,0
16.10.2017 08:00:00 11,7 11,1 10,7 4 2 12 6 NNE 1027,8 3,2 0,0
16.10.2017 07:00:00 12,1 11,5 11,3 8 5 13 7 NNE 1027,5 5 0,0
16.10.2017 06:00:00 12,2 11,6 11,7 9 5 13 7 NNE 1027,3 7 0,0
16.10.2017 05:00:00 12,5 11,9 11,9 8 4 12 6 NNE 1027,3 7 0,0
16.10.2017 04:00:00 13,3 12,5 12,6 9 5 11 6 NE 1027,6 7 0,0
16.10.2017 03:00:00 15,4 14,8 13,8 7 4 10 5 ENE 1028,0 6 0,0
16.10.2017 02:00:00 14,5 13,9 13,8 5 3 9 5 ENE 1028,1 7 0,0
16.10.2017 01:00:00 14,3 13,7 13,3 6 3 10 5 ENE 1028,5 5 0,2
16.10.2017 00:00:00 14,3 13,5 13,4 8 4 11 6 NE 1028,6 8 0,0
15.10.2017 23:00:00 15,0 14,0 13,6 5 3 8 4 ENE 1028,5 8 0,0
15.10.2017 22:00:00 15,5 14,2 13,9 3 1 4 2 NE 1028,4 4,0 0,0
15.10.2017 21:00:00 17,3 15,8 13,9 2 1 8 4 SE 1028,2 10 0,0
15.10.2017 20:00:00 17,9 15,3 16,0 4 2 12 6 SSE 1028,0 12 0,0
15.10.2017 19:00:00 19,3 15,0 18,6 9 5 21 12 S 1027,6 10 0,0
15.10.2017 18:00:00 21,3 14,5 23,5 16 9 22 12 S 1027,4 10 0,0
15.10.2017 17:00:00 23,3 14,0 27,6 15 8 26 14 S 1027,4 10 0,0
15.10.2017 16:00:00 24,5 13,4 29,9 13 7 24 13 S 1027,6 10 0,0
15.10.2017 15:00:00 25,0 13,2 30,3 8 4 22 12 SSW 1028,0 20 0,0
15.10.2017 14:00:00 24,5 13,1 27,7 5 3 18 10 - 1028,6 10 0,0
15.10.2017 13:00:00 23,5 12,8 26,2 5 3 16 9 SSE 1029,3 41 0,0
15.10.2017 12:00:00 22,3 13,6 24,3 11 6 18 10 E 1029,6 20 0,0
15.10.2017 11:00:00 20,1 14,2 19,3 13 7 20 11 E 1029,7 10 0,0
15.10.2017 10:00:00 17,4 13,7 16,5 16 9 21 12 ENE 1029,6 12 0,0
15.10.2017 09:00:00 16,0 13,7 14,2 12 6 17 9 ENE 1029,5 9 0,0
15.10.2017 08:00:00 14,5 13,2 12,7 10 6 14 8 ENE 1029,0 4,6 0,0
15.10.2017 07:00:00 13,3 11,9 12,3 5 3 14 8 E 1028,8 6 0,0
15.10.2017 06:00:00 15,0 13,5 14,4 9 5 16 8 ENE 1028,7 7 0,0
15.10.2017 05:00:00 15,5 13,5 14,8 10 6 14 8 ENE 1028,6 7 0,0
15.10.2017 04:00:00 15,3 13,3 14,4 9 5 13 7 ENE 1028,5 7 0,0
15.10.2017 03:00:00 14,2 12,6 12,9 5 3 8 5 NE 1028,8 9 0,0
15.10.2017 02:00:00 13,0 11,7 12,4 5 3 8 4 NE 1028,9 8 0,0
15.10.2017 01:00:00 13,4 12,0 12,6 5 3 7 4 ENE 1028,7 9 0,0
15.10.2017 00:00:00 14,0 12,4 12,4 5 3 6 4 ENE 1028,5 9 0,0
14.10.2017 23:00:00 14,0 12,0 13,1 4 2 7 4 NNE 1028,4 10 0,0
14.10.2017 22:00:00 15,5 13,3 13,3 2 1 3 1 E 1028,1 12 0,0
14.10.2017 21:00:00 16,9 14,0 13,4 0 0 7 4 N 1028,1 10 0,0
14.10.2017 20:00:00 18,0 13,5 16,2 5 3 9 5 SSE 1027,8 10 0,0
14.10.2017 19:00:00 19,8 13,3 18,7 8 4 13 7 SSE 1027,4 26 0,0
14.10.2017 18:00:00 22,1 13,4 22,9 5 3 14 7 - 1027,2 10 0,0
14.10.2017 17:00:00 23,6 13,5 27,0 3 1 16 8 S 1027,2 27 0,0
14.10.2017 16:00:00 23,4 13,6 25,6 9 5 21 11 SW 1027,4 10 0,0
14.10.2017 15:00:00 22,3 13,9 24,9 12 6 22 12 SSW 1027,6 14 0,0
14.10.2017 14:00:00 21,8 14,7 24,9 12 6 19 11 S 1028,1 30 0,0
14.10.2017 13:00:00 22,0 13,9 24,5 5 3 12 6 - 1028,6 10 0,0
14.10.2017 12:00:00 20,8 13,7 22,6 7 4 15 8 E 1028,8 19 0,0
14.10.2017 11:00:00 19,9 13,8 20,9 10 5 15 8 E 1028,9 18 0,0
14.10.2017 10:00:00 18,8 14,1 18,4 10 6 - - NE 1028,3 17 0,0
14.10.2017 09:00:00 18,0 14,1 17,7 10 6 - - ENE 1027,8 15 0,0
14.10.2017 08:00:00 17,7 14,2 17,3 8 4 12 7 E 1027,2 12 0,0
14.10.2017 07:00:00 17,7 14,8 17,5 5 3 6 3 NE 1026,9 10 0,0
14.10.2017 06:00:00 17,5 15,1 17,5 4 2 5 3 N 1026,9 9 0,0
14.10.2017 05:00:00 17,6 15,6 17,6 0 0 5 3 N 1026,8 10 0,0
14.10.2017 04:00:00 17,6 15,9 17,5 2 1 5 3 - 1026,9 9 0,0
14.10.2017 03:00:00 17,7 16,4 17,3 2 1 5 3 NE 1027,0 8 0,0
14.10.2017 02:00:00 17,2 16,1 16,9 0 0 7 4 N 1027,0 7 0,0
14.10.2017 01:00:00 16,8 15,8 16,0 3 2 5 3 NNE 1026,9 6 0,0
14.10.2017 00:00:00 16,4 15,4 14,0 3 1 5 3 NNE 1027,1 3,2 0,0
13.10.2017 23:00:00 17,6 16,3 14,1 2 1 8 4 SSE 1026,8 3,6 0,0
13.10.2017 22:00:00 18,9 16,9 17,9 8 4 10 5 SSE 1026,7 12 0,0
13.10.2017 21:00:00 19,4 17,0 19,4 5 3 14 7 SE 1026,4 10 0,0
13.10.2017 20:00:00 19,6 17,0 19,6 9 5 14 8 SSE 1026,3 10 0,0
13.10.2017 19:00:00 19,8 16,4 19,8 9 5 17 9 SE 1025,9 10 0,0
13.10.2017 18:00:00 20,4 16,8 21,4 8 5 16 9 S 1025,7 18 0,0
13.10.2017 17:00:00 20,6 16,8 22,4 8 4 19 10 S 1025,8 10 0,0
13.10.2017 16:00:00 21,1 16,3 23,6 11 6 19 10 SSW 1025,9 16 0,0
13.10.2017 15:00:00 21,6 16,1 23,5 13 7 19 11 SSW 1026,2 10 0,0
13.10.2017 14:00:00 20,1 16,3 22,1 4 2 12 6 - 1026,7 10 0,0
13.10.2017 13:00:00 19,0 16,0 20,5 5 3 11 6 SE 1027,4 9 0,0
13.10.2017 12:00:00 17,9 15,7 18,6 5 3 14 8 SE 1027,7 7 0,0
13.10.2017 11:00:00 16,0 15,2 17,5 4 2 11 6 SE 1027,5 4,4 0,0
13.10.2017 10:00:00 14,7 14,2 14,4 2 1 4 2 E 1027,1 1,8 0,0
13.10.2017 09:00:00 13,4 12,9 13,0 0 0 4 2 N 1026,6 0,2 0,0
13.10.2017 08:00:00 13,0 12,4 12,3 4 2 9 5 - 1026,0 0,7 0,0
13.10.2017 07:00:00 12,3 11,8 10,5 2 1 6 4 NNE 1025,8 7 0,0
13.10.2017 06:00:00 11,6 11,0 10,6 7 4 9 5 NE 1025,7 4,5 0,2
13.10.2017 05:00:00 12,1 11,5 10,9 5 3 8 5 NE 1025,7 5 0,0
13.10.2017 04:00:00 12,6 11,8 11,8 5 3 7 4 ENE 1025,9 6 0,0
13.10.2017 03:00:00 14,9 14,1 13,6 6 4 9 5 E 1026,0 1,9 0,0
13.10.2017 02:00:00 15,1 14,3 11,9 8 4 11 6 E 1025,9 8 0,0
13.10.2017 01:00:00 14,5 13,5 11,9 2 1 11 6 ESE 1025,9 8 0,0
13.10.2017 00:00:00 15,1 14,0 12,8 4 2 12 6 SSW 1026,1 8 0,0
12.10.2017 23:00:00 15,5 14,0 13,8 8 4 9 5 SE 1026,3 7 0,0
12.10.2017 22:00:00 16,0 14,4 14,8 6 3 16 9 SSE 1026,1 13 0,0
12.10.2017 21:00:00 16,4 14,1 15,6 11 6 13 7 WSW 1025,5 19 0,0
12.10.2017 20:00:00 17,7 14,0 16,7 8 4 13 7 WSW 1025,1 10 0,0
12.10.2017 19:00:00 20,2 14,6 19,7 11 6 18 10 W 1024,7 10 0,0
12.10.2017 18:00:00 22,6 15,2 24,0 15 8 25 14 WSW 1024,3 10 0,0
12.10.2017 17:00:00 24,2 15,1 26,9 21 11 26 14 WSW 1024,0 10 0,0
12.10.2017 16:00:00 26,5 12,9 31,4 13 7 25 14 W 1024,2 53 0,0
12.10.2017 15:00:00 26,1 12,2 31,6 12 6 22 12 W 1024,4 20 0,0
12.10.2017 14:00:00 24,9 13,4 31,1 9 5 23 13 W 1024,9 10 0,0
12.10.2017 13:00:00 23,9 14,0 29,1 11 6 22 12 WNW 1025,4 10 0,0
12.10.2017 12:00:00 22,4 14,3 28,7 11 6 18 10 WNW 1025,8 10 0,0
12.10.2017 11:00:00 21,2 14,4 25,8 8 4 13 7 NW 1025,6 10 0,0
12.10.2017 10:00:00 19,7 14,5 18,8 9 5 14 8 NNE 1025,7 16 0,0
12.10.2017 09:00:00 17,2 14,3 14,1 5 3 8 5 - 1025,6 10 0,0
12.10.2017 08:00:00 15,9 13,6 14,2 5 3 10 5 - 1024,9 10 0,0
12.10.2017 07:00:00 16,0 13,5 13,8 5 3 6 3 NNW 1024,5 10 0,0
12.10.2017 06:00:00 15,5 12,3 14,5 4 2 9 5 NE 1024,2 35 0,0
12.10.2017 05:00:00 14,7 11,3 13,8 8 4 10 5 NNE 1024,3 10 0,0
12.10.2017 04:00:00 14,8 11,2 13,9 5 3 9 5 NNE 1024,2 10 0,0
12.10.2017 03:00:00 14,5 11,1 13,5 7 4 10 5 ENE 1024,7 60 0,0
12.10.2017 02:00:00 14,2 11,0 13,2 5 3 9 5 NE 1024,6 10 0,0
12.10.2017 01:00:00 15,0 11,2 14,3 5 3 9 5 NE 1024,5 10 0,0
12.10.2017 00:00:00 16,8 12,3 15,7 6 3 14 7 E 1024,7 56 0,0
11.10.2017 23:00:00 17,6 12,1 16,0 9 5 13 7 E 1024,7 60 0,0
11.10.2017 22:00:00 17,2 11,7 16,1 4 2 11 6 ENE 1024,3 60 0,0
11.10.2017 21:00:00 18,6 11,2 17,7 9 5 14 8 ESE 1024,0 10 0,0
11.10.2017 20:00:00 18,8 11,4 17,7 8 4 21 11 SSE 1023,6 10 0,0

tt = Température de l'air
td = dewpoint
tt 5cm = Température de l'air 5cm
ff = Vitesse du vent
fx = gusts
dd = Direction du vent
ppp = reduced air pressure
vv = visibility
rr = Quantités de précipitations

stations d'obs. à proximité